TimeCST,TemperatureF,Dew PointF,Humidity,Sea Level PressureIn,VisibilityMPH,Wind Direction,Wind SpeedMPH,Gust SpeedMPH,PrecipitationIn,Events,Conditions,WindDirDegrees,DateUTC
12:56 AM,52.9,39.9,61,30.40,10.0,South,3.5,-,N/A,,Clear,190,2013-11-05 06:56:00
1:56 AM,50.9,38.8,63,30.39,10.0,Calm,Calm,-,N/A,,Clear,0,2013-11-05 07:56:00
2:56 AM,46.9,38.8,73,30.39,10.0,Calm,Calm,-,N/A,,Clear,0,2013-11-05 08:56:00
3:56 AM,41.9,37.9,86,30.39,10.0,Calm,Calm,-,N/A,,Clear,0,2013-11-05 09:56:00
4:56 AM,45.0,38.8,79,30.39,10.0,Calm,Calm,-,N/A,,Clear,0,2013-11-05 10:56:00
5:56 AM,43.0,38.8,85,30.42,10.0,Calm,Calm,-,N/A,,Clear,0,2013-11-05 11:56:00
6:56 AM,46.9,41.0,80,30.42,10.0,SSE,4.6,-,N/A,,Clear,160,2013-11-05 12:56:00
7:56 AM,54.9,38.8,55,30.43,10.0,South,6.9,-,N/A,,Clear,180,2013-11-05 13:56:00
8:56 AM,57.9,37.9,47,30.44,10.0,South,8.1,-,N/A,,Clear,180,2013-11-05 14:56:00
9:56 AM,59.9,38.8,46,30.44,10.0,South,8.1,-,N/A,,Clear,180,2013-11-05 15:56:00
10:56 AM,64.9,39.9,40,30.41,10.0,Variable,6.9,-,N/A,,Partly Cloudy,0,2013-11-05 16:56:00
11:56 AM,65.8,41.9,42,30.37,10.0,SSE,9.2,-,N/A,,Scattered Clouds,160,2013-11-05 17:56:00
12:56 PM,68.9,41.9,37,30.34,10.0,SSE,11.5,-,N/A,,Scattered Clouds,150,2013-11-05 18:56:00
1:56 PM,70.0,43.0,38,30.32,10.0,SSW,9.2,-,N/A,,Scattered Clouds,200,2013-11-05 19:56:00
2:56 PM,68.9,43.0,39,30.30,6.0,South,11.5,-,N/A,,Haze,190,2013-11-05 20:56:00
3:56 PM,65.8,43.9,45,30.30,10.0,South,9.2,-,N/A,,Scattered Clouds,170,2013-11-05 21:56:00
4:56 PM,63.0,43.0,48,30.30,4.0,South,5.8,-,N/A,,Haze,180,2013-11-05 22:56:00
5:56 PM,61.9,43.9,52,30.31,5.0,South,5.8,-,N/A,,Haze,180,2013-11-05 23:56:00
6:56 PM,59.0,43.9,57,30.30,5.0,South,5.8,-,N/A,,Haze,180,2013-11-06 00:56:00
7:56 PM,57.9,43.0,58,30.30,9.0,South,6.9,-,N/A,,Clear,170,2013-11-06 01:56:00
8:56 PM,55.9,41.9,59,30.30,8.0,South,3.5,-,N/A,,Clear,170,2013-11-06 02:56:00
9:56 PM,54.0,41.9,64,30.30,10.0,SSE,5.8,-,N/A,,Clear,150,2013-11-06 03:56:00
10:56 PM,50.9,43.0,74,30.29,10.0,SSE,4.6,-,N/A,,Clear,150,2013-11-06 04:56:00
11:56 PM,52.9,43.0,69,30.28,9.0,South,3.5,-,N/A,,Overcast,180,2013-11-06 05:56:00